Wind_Speed
23 24 23 25 27 29 29 31 33 35 35 35 36 37 38 38 38 38 38 39 41 42 43 44 44 45 46 46 47 48 49 50 50 51 52 52 52 52 51 51 52 53 53
23 24 26 26 28 29 30 31 33 34 35 34 35 37 38 37 38 38 39 40 40 42 43 43 44 46 47 48 49 50 51 51 52 52 52 52 52 53 53 54 53 54 54
23 24 26 28 29 30 31 32 33 35 36 36 37 38 39 39 40 40 41 42 42 43 44 45 46 47 47 48 49 50 51 51 52 52 53 54 54 55 54 55 55 55 55
25 25 28 29 30 31 32 34 35 37 38 39 39 40 40 41 42 42 43 43 44 45 46 47 48 49 49 50 50 50 51 52 52 53 53 54 55 55 55 55 55 55 55
26 27 28 29 32 34 35 36 37 38 39 40 40 41 41 42 43 44 44 45 46 47 48 49 50 50 51 52 52 52 53 53 53 53 53 54 54 54 55 56 56 56 56
28 29 30 31 32 34 36 38 38 39 40 41 41 42 42 43 44 45 46 47 48 49 50 51 51 51 52 52 53 53 52 52 53 53 53 53 54 55 56 56 56 56 56
30 31 32 33 33 34 36 37 38 39 40 41 43 44 44 44 45 46 47 49 50 51 51 51 51 52 52 52 53 53 52 53 53 53 53 54 55 55 56 57 57 57 56
32 33 33 34 35 36 37 38 39 41 42 43 44 46 47 47 48 48 49 50 51 51 52 52 52 52 52 52 52 52 52 52 53 53 54 54 55 56 56 56 56 56 55
33 34 35 35 36 38 38 39 40 41 43 44 45 46 47 48 49 50 51 52 52 52 53 53 53 53 53 52 52 52 52 52 53 53 54 55 56 56 56 56 55 55 54
34 34 35 37 38 39 40 41 41 42 43 45 46 47 47 48 49 51 51 51 51 51 52 52 53 53 53 53 54 54 53 53 54 54 54 55 55 56 56 56 55 55 54
35 36 36 37 39 40 41 42 42 42 43 44 46 46 47 48 49 50 51 51 51 51 51 51 52 52 53 53 54 54 54 54 54 54 55 55 55 55 55 55 55 55 54
36 36 37 38 39 40 41 42 43 43 44 44 45 46 46 47 48 49 49 50 50 50 51 51 51 52 52 53 53 54 54 54 54 55 55 54 54 54 55 55 55 55 54
38 38 39 40 40 40 41 41 42 43 43 44 45 45 46 47 47 48 48 48 49 49 49 50 51 51 51 52 53 53 53 53 54 54 54 54 54 54 54 54 54 54 54
39 40 40 40 40 41 41 42 42 43 43 44 45 45 46 47 46 46 46 47 48 48 48 50 50 51 51 51 52 52 53 53 53 53 53 53 54 54 54 53 52 52 52
41 41 41 41 41 42 42 42 43 43 44 44 44 44 45 45 45 45 46 46 47 49 49 50 50 50 51 51 51 51 52 52 52 52 52 52 52 52 52 51 51 51 50
41 41 42 42 43 43 43 43 44 44 44 43 43 44 44 45 45 45 46 47 48 48 49 50 50 51 50 50 50 50 51 51 51 51 50 50 50 50 50 50 49 49 48
42 42 43 43 44 44 44 44 43 43 44 44 44 45 45 46 46 46 47 47 47 48 48 49 49 48 48 48 48 49 49 49 48 48 48 48 48 48 48 47 47 46 45
43 44 44 44 45 45 44 44 43 43 43 44 45 45 46 47 47 48 48 48 48 48 48 47 46 46 47 47 47 47 46 45 45 45 46 46 45 45 45 44 43 43 43
44 44 45 45 45 45 45 45 45 45 45 45 45 46 47 47 47 48 47 47 47 47 46 45 45 45 45 45 45 44 44 43 43 43 43 43 43 42 41 41 41 40 40
44 44 45 45 45 45 45 45 45 45 46 46 47 47 47 47 46 46 46 46 46 45 45 44 44 44 43 43 42 41 41 40 40 40 40 40 39 39 39 39 38 37 36
44 45 45 45 45 45 45 45 46 46 46 46 46 46 46 45 45 45 45 45 45 44 44 43 43 42 42 41 40 39 38 38 37 37 37 37 37 37 37 36 35 34 33
45 45 45 45 45 45 45 45 46 45 45 45 45 44 44 44 44 44 43 43 43 42 42 42 41 40 39 38 37 36 36 35 35 35 35 35 35 34 33 33 32 31 30
46 46 45 45 45 45 45 45 44 43 42 42 42 42 42 41 41 41 41 40 40 40 39 38 37 36 36 35 35 35 34 34 34 34 33 33 32 31 30 29 29 28 28
45 45 45 44 44 43 43 42 41 41 40 40 39 39 38 38 38 38 38 38 37 36 35 34 34 33 33 33 33 32 32 32 32 31 31 30 29 29 28 27 26 26 25
43 42 42 41 41 40 39 39 39 38 38 37 37 36 36 36 36 35 34 34 33 33 32 31 31 31 31 30 30 30 30 30 29 29 28 27 27 26 26 25 25 24 24
40 40 39 39 38 37 37 37 36 36 35 34 34 33 33 33 32 32 31 30 30 30 30 30 29 29 28 28 28 28 27 28 27 27 26 26 25 24 24 23 23 23 22
Wind_Direction
247 248 243 240 238 240 245 247 247 246 246 249 250 251 252 254 256 258 259 261 264 266 267 268 270 272 274 275 276 276 278 279 280 281 282 283 283 284 284 285 285 285 286
252 250 249 248 246 246 250 251 250 251 251 253 255 255 255 256 258 260 262 264 266 268 270 272 273 274 275 277 277 278 279 281 282 283 284 284 284 284 284 285 285 285 286
255 253 253 253 252 251 252 253 253 253 254 256 258 258 259 260 262 264 265 267 268 269 271 272 273 274 275 277 278 279 280 282 283 284 284 284 284 284 285 285 285 285 285
263 258 258 259 258 257 257 257 256 257 257 258 259 261 262 264 265 266 267 269 269 270 271 272 272 273 274 276 278 279 280 282 282 283 284 284 285 285 285 285 285 284 285
267 266 264 264 262 260 260 260 261 261 260 260 261 262 264 265 267 268 269 270 271 271 272 272 272 273 275 276 277 279 280 281 282 283 284 284 285 286 286 286 287 286 285
269 269 268 268 267 265 263 264 265 264 262 261 263 264 265 267 268 268 270 271 272 272 272 273 274 275 277 278 278 280 280 281 282 283 284 285 286 286 287 288 288 287 286
269 268 269 269 269 268 267 267 267 266 264 264 265 265 266 267 268 269 270 271 272 273 274 274 275 275 276 277 279 279 280 281 282 283 284 285 286 287 288 288 288 288 288
271 269 270 270 270 270 269 268 268 268 267 267 267 267 267 267 268 270 271 272 273 275 275 275 275 276 277 279 279 279 280 281 283 284 285 285 286 287 288 289 290 289 288
274 272 271 271 271 271 272 271 270 270 268 267 267 268 268 269 270 272 273 273 274 274 275 276 276 277 278 279 280 280 281 282 283 284 285 286 287 288 289 289 290 289 289
276 275 273 273 272 271 271 271 271 271 270 269 269 270 270 271 272 273 274 275 275 276 276 276 277 277 277 279 280 281 281 282 282 283 284 286 287 288 289 289 289 289 289
278 277 276 275 272 271 271 271 271 271 271 271 271 271 272 272 274 274 275 275 275 276 276 277 278 279 279 280 281 281 282 282 283 284 285 286 286 287 288 289 289 289 289
280 279 276 276 274 273 273 274 273 273 273 273 273 273 274 275 275 276 276 276 276 277 277 277 278 279 279 280 281 282 283 284 284 285 285 286 287 287 288 288 288 289 289
280 279 278 278 277 276 276 277 276 276 276 275 275 275 275 276 277 277 276 276 277 277 278 278 279 279 280 281 282 283 284 284 285 285 285 286 286 287 288 288 288 289 289
280 280 279 279 278 279 279 279 279 279 279 279 278 278 277 277 278 277 277 277 277 278 278 279 279 279 280 281 282 283 284 284 285 285 286 286 286 287 288 288 288 289 289
280 279 279 279 279 279 280 280 280 281 281 281 280 279 279 279 279 279 279 279 279 278 279 279 280 280 281 281 282 283 283 284 285 285 286 286 287 287 287 288 288 289 289
280 280 280 280 280 280 281 281 282 282 281 280 280 280 280 280 280 281 281 281 281 280 280 280 280 281 281 281 282 283 283 284 284 285 285 286 286 287 287 288 288 288 288
280 281 282 282 282 282 282 282 282 283 282 281 280 281 281 281 282 282 282 282 282 281 281 282 282 282 282 282 283 283 284 284 284 284 285 286 287 288 289 288 288 288 289
281 282 283 283 283 283 282 282 282 283 282 282 282 281 281 281 281 282 283 283 282 282 282 283 283 283 283 283 283 283 284 284 285 285 286 287 288 289 289 289 289 289 289
283 283 284 284 284 283 283 283 282 283 283 283 283 283 282 281 281 282 282 282 282 282 283 283 283 283 283 283 283 283 284 285 285 286 287 288 289 289 289 290 291 291 290
283 283 284 284 285 284 284 283 283 283 283 283 283 283 282 281 281 281 281 282 282 283 283 282 283 283 283 283 283 283 284 284 285 286 287 288 289 289 290 290 291 290 290
283 283 285 285 285 285 285 284 284 284 284 283 283 282 282 281 281 281 281 282 282 282 282 282 282 282 282 282 283 283 283 284 285 286 287 289 290 291 291 290 290 290 291
284 284 285 285 285 285 285 285 285 285 284 283 282 282 281 281 281 280 281 282 282 282 282 282 281 281 281 281 282 282 283 284 285 286 288 289 290 290 290 290 290 290 291
284 284 284 285 285 286 286 286 285 284 283 283 281 280 280 281 282 281 281 282 283 283 282 281 281 279 279 280 280 280 282 283 284 286 287 288 289 289 290 290 290 291 292
284 284 284 285 285 285 285 285 284 283 283 282 281 280 281 281 282 282 281 281 282 281 280 279 279 278 278 279 279 281 282 282 284 286 287 287 288 289 289 289 290 291 292
285 285 285 284 284 284 284 284 284 284 284 283 281 281 281 282 282 282 281 281 280 280 278 278 277 277 278 278 279 280 281 282 283 284 285 286 288 288 288 287 289 291 292
285 285 285 285 284 284 284 284 285 285 284 284 282 281 281 283 283 282 281 280 280 279 278 277 276 277 278 278 279 279 280 281 283 284 284 285 286 286 286 287 288 290 291
Height
5656 5659 5662 5664 5667 5670 5673 5676 5680 5683 5686 5688 5690 5692 5693 5695 5697 5698 5699 5700 5700 5701 5701 5701 5701 5700 5700 5699 5698 5697 5695 5694 5693 5692 5690 5687 5685 5683 5680 5678 5675 5673 5670
5652 5655 5657 5658 5660 5663 5666 5669 5672 5674 5677 5679 5681 5683 5684 5686 5687 5688 5689 5689 5689 5690 5690 5689 5689 5688 5687 5686 5685 5684 5682 5680 5679 5678 5676 5673 5671 5668 5666 5663 5661 5658 5655
5647 5649 5650 5652 5654 5656 5658 5661 5663 5665 5667 5669 5671 5673 5674 5676 5676 5677 5677 5677 5678 5678 5677 5677 5676 5675 5674 5673 5672 5670 5668 5667 5665 5663 5661 5659 5656 5654 5651 5648 5646 5643 5640
5641 5642 5644 5645 5646 5648 5650 5652 5653 5655 5657 5659 5661 5662 5663 5664 5665 5665 5665 5666 5665 5665 5664 5664 5663 5662 5660 5659 5658 5656 5655 5653 5651 5649 5646 5644 5641 5639 5636 5633 5631 5628 5625
5634 5635 5636 5637 5638 5639 5640 5642 5643 5645 5646 5648 5649 5650 5651 5652 5652 5653 5653 5653 5653 5652 5651 5650 5649 5647 5646 5645 5644 5642 5640 5639 5636 5634 5632 5629 5627 5624 5621 5618 5615 5613 5610
5627 5627 5627 5628 5629 5630 5630 5631 5632 5634 5635 5636 5637 5638 5639 5639 5640 5640 5640 5640 5639 5638 5637 5636 5635 5633 5632 5631 5630 5628 5626 5624 5622 5620 5617 5615 5612 5609 5606 5603 5600 5597 5595
5618 5618 5618 5618 5619 5619 5620 5621 5621 5622 5623 5624 5624 5625 5626 5626 5626 5626 5626 5626 5625 5624 5623 5622 5621 5619 5618 5617 5615 5613 5611 5609 5607 5605 5603 5600 5597 5594 5591 5588 5584 5581 5578
5609 5609 5608 5608 5608 5608 5609 5609 5610 5610 5611 5611 5612 5612 5612 5613 5612 5612 5612 5611 5611 5610 5608 5607 5606 5605 5604 5602 5601 5599 5597 5595 5592 5590 5588 5585 5581 5578 5575 5572 5568 5565 5563
5600 5599 5598 5598 5598 5597 5597 5597 5597 5598 5598 5599 5599 5599 5599 5599 5598 5598 5597 5597 5596 5595 5594 5593 5592 5590 5589 5587 5586 5584 5583 5580 5577 5575 5573 5569 5566 5562 5559 5556 5552 5549 5547
5589 5589 5588 5587 5587 5586 5586 5586 5585 5585 5585 5585 5586 5585 5585 5585 5584 5583 5582 5581 5581 5580 5579 5578 5577 5575 5573 5572 5571 5569 5567 5565 5563 5560 5558 5554 5551 5547 5543 5540 5536 5533 5530
5579 5578 5577 5576 5576 5575 5575 5574 5573 5573 5572 5572 5572 5571 5571 5570 5569 5568 5567 5566 5566 5565 5564 5563 5562 5560 5559 5557 5555 5554 5552 5550 5548 5545 5542 5539 5536 5532 5528 5525 5521 5517 5514
5568 5567 5566 5565 5564 5563 5563 5562 5561 5560 5559 5558 5558 5557 5556 5555 5554 5553 5552 5551 5550 5550 5549 5548 5547 5545 5544 5542 5540 5539 5536 5534 5532 5529 5527 5524 5520 5517 5514 5510 5506 5502 5499
5558 5556 5555 5554 5552 5551 5550 5549 5548 5547 5546 5545 5544 5543 5542 5541 5539 5538 5537 5536 5535 5535 5534 5533 5532 5531 5529 5527 5526 5523 5521 5519 5516 5514 5511 5508 5505 5502 5498 5495 5491 5487 5484
5547 5545 5543 5542 5541 5539 5538 5536 5535 5534 5532 5531 5530 5529 5528 5526 5525 5523 5522 5521 5521 5520 5519 5518 5517 5516 5514 5512 5511 5508 5506 5503 5500 5498 5495 5493 5490 5486 5483 5480 5476 5473 5469
5534 5533 5531 5530 5528 5527 5525 5524 5522 5521 5519 5517 5516 5515 5514 5513 5511 5510 5509 5508 5507 5506 5505 5504 5503 5501 5499 5497 5495 5493 5490 5488 5485 5482 5480 5477 5474 5471 5468 5465 5461 5458 5455
5522 5520 5519 5517 5516 5514 5513 5511 5509 5507 5506 5504 5502 5501 5500 5499 5498 5496 5495 5494 5492 5491 5490 5489 5488 5486 5484 5482 5480 5477 5475 5472 5470 5467 5465 5462 5459 5456 5453 5450 5446 5443 5441
5509 5507 5506 5504 5502 5501 5499 5498 5496 5495 5492 5491 5489 5488 5487 5485 5484 5483 5481 5479 5478 5476 5475 5474 5472 5470 5469 5467 5465 5462 5460 5458 5455 5453 5450 5448 5445 5442 5439 5435 5432 5430 5427
5496 5494 5493 5491 5489 5487 5486 5484 5483 5481 5480 5478 5476 5474 5473 5471 5470 5468 5467 5465 5464 5462 5460 5459 5458 5456 5454 5452 5450 5448 5446 5444 5441 5439 5436 5434 5431 5428 5425 5422 5420 5417 5414
5483 5481 5479 5477 5476 5474 5472 5471 5469 5468 5466 5465 5463 5461 5459 5457 5456 5454 5452 5451 5450 5448 5447 5445 5444 5442 5440 5438 5436 5434 5432 5430 5428 5426 5423 5421 5418 5415 5413 5410 5407 5404 5402
5470 5468 5465 5464 5462 5460 5458 5457 5455 5453 5452 5450 5449 5447 5445 5443 5441 5440 5438 5436 5435 5434 5433 5431 5430 5428 5426 5425 5423 5421 5419 5417 5415 5413 5411 5408 5406 5403 5401 5398 5396 5393 5391
5456 5454 5452 5450 5448 5446 5445 5443 5441 5439 5437 5436 5434 5432 5430 5429 5427 5426 5424 5423 5421 5420 5419 5418 5416 5415 5413 5412 5410 5409 5407 5405 5403 5401 5399 5397 5395 5392 5390 5387 5385 5383 5380
5442 5440 5439 5437 5435 5433 5431 5429 5427 5425 5423 5421 5420 5418 5416 5415 5413 5412 5411 5409 5408 5406 5405 5404 5403 5402 5400 5399 5398 5397 5395 5394 5392 5390 5388 5386 5384 5382 5380 5377 5375 5373 5371
5428 5426 5424 5423 5421 5419 5417 5415 5413 5411 5409 5407 5406 5405 5403 5402 5400 5399 5398 5396 5395 5393 5392 5391 5390 5389 5388 5387 5386 5385 5384 5383 5381 5380 5378 5376 5374 5372 5370 5368 5366 5365 5363
5414 5412 5411 5409 5407 5405 5403 5401 5399 5397 5396 5394 5393 5392 5390 5389 5388 5386 5385 5383 5382 5381 5380 5379 5378 5378 5377 5376 5375 5374 5373 5372 5371 5370 5368 5367 5365 5364 5362 5360 5359 5357 5355
5401 5399 5397 5395 5393 5391 5390 5388 5386 5385 5383 5381 5380 5379 5378 5377 5375 5374 5373 5372 5371 5370 5369 5368 5368 5367 5367 5366 5365 5364 5363 5362 5361 5360 5359 5358 5357 5355 5354 5353 5351 5350 5348
5388 5386 5384 5382 5380 5379 5377 5376 5374 5372 5371 5369 5368 5367 5366 5365 5364 5363 5362 5361 5360 5359 5359 5358 5358 5357 5357 5356 5356 5355 5354 5353 5352 5352 5351 5350 5349 5348 5346 5345 5344 5343 5341